Theta_e
339 339 340 341 341 341 341 342 343 342 343 345 345 346 346 347 348 350 350 352 353 354 355 356 356 356 356 356 357 358 357 356 356 354 353 353 354 357 358 358 360 363 362 362 364 365 367 369 369 369 369 369 368 369 370 371 371 369 371 372 370 369 368
337 338 339 340 341 341 342 343 344 343 343 344 345 347 346 346 348 348 350 352 353 354 354 355 355 355 356 356 357 358 357 356 356 356 354 355 356 357 358 360 361 364 365 364 365 368 369 368 369 369 369 370 368 371 370 370 370 370 368 371 369 369 369
331 336 339 340 340 341 343 343 344 343 343 343 345 345 346 348 349 349 350 350 352 353 354 354 355 355 356 357 356 357 357 356 355 354 353 351 352 350 355 359 361 361 361 364 366 365 366 366 369 369 369 368 367 370 370 370 371 369 370 370 368 367 369
329 332 338 341 342 343 343 344 344 343 343 344 344 345 346 349 349 350 350 350 350 352 352 353 354 353 354 355 355 356 356 356 356 353 352 352 352 352 354 356 359 359 360 361 362 363 362 365 367 368 369 369 369 369 369 369 368 370 370 370 367 367 369
327 331 337 339 340 341 342 343 343 344 343 343 344 346 347 347 347 348 348 349 349 350 351 351 351 353 354 355 353 354 355 355 355 354 354 353 354 354 352 351 354 355 357 359 362 364 364 365 364 366 367 369 368 369 369 370 369 370 370 370 367 367 365
324 327 330 335 340 341 341 342 343 343 342 341 343 343 344 345 346 345 347 348 349 350 352 352 351 353 353 353 353 353 355 356 357 356 354 355 355 352 351 352 352 354 354 357 359 360 363 363 363 364 364 365 365 364 366 367 367 368 369 369 368 366 364
323 325 327 330 333 338 341 342 342 344 343 343 343 344 344 344 344 345 345 346 347 348 349 349 350 351 353 353 353 354 354 353 355 354 354 353 353 352 352 352 353 352 353 358 357 359 359 361 363 364 364 363 365 364 366 368 367 368 369 369 368 369 369
321 322 325 327 329 330 332 339 343 344 344 343 342 342 343 343 343 343 345 345 346 347 348 348 349 351 353 353 353 353 353 353 353 354 354 352 352 352 351 352 352 353 354 353 356 358 357 360 360 362 363 363 364 366 366 369 369 367 367 367 367 367 365
319 321 323 324 327 328 330 332 335 339 343 344 342 342 342 343 348 347 350 351 352 346 347 348 348 350 353 353 353 353 353 352 353 353 353 351 351 350 350 351 351 353 352 349 351 356 356 357 357 361 363 362 363 366 366 368 367 367 367 366 367 366 365
315 318 320 323 324 326 328 330 332 334 335 337 344 343 342 343 342 343 345 347 347 344 345 347 348 349 351 352 351 352 352 353 352 351 351 350 350 350 350 350 350 352 350 350 349 351 355 357 357 360 362 361 362 365 365 366 365 366 366 366 367 366 366
314 315 317 319 321 323 325 326 328 330 331 333 336 340 344 343 342 342 343 344 343 343 345 346 348 348 349 350 350 350 351 351 351 350 350 349 349 350 350 350 350 351 350 349 349 350 352 356 358 359 360 357 359 361 363 363 365 365 364 365 366 366 365
314 314 314 316 318 320 320 322 324 327 329 330 332 334 337 341 342 342 346 344 344 343 344 345 346 347 348 349 348 349 350 351 351 350 350 350 349 349 350 350 350 350 350 349 349 350 350 353 354 356 359 359 359 360 362 363 365 366 365 363 363 365 364
313 314 314 315 315 316 319 320 321 323 326 327 328 331 333 335 336 341 344 343 343 344 344 346 347 348 347 348 347 349 349 350 350 351 350 351 350 350 350 350 349 349 349 350 349 349 349 351 354 356 357 359 359 358 360 362 362 364 366 364 364 364 364
315 312 313 314 314 315 315 317 318 320 322 324 325 328 331 334 334 336 339 340 345 347 343 345 347 348 348 348 348 349 348 350 351 352 352 352 353 352 351 350 350 350 351 351 350 348 349 349 351 354 355 356 357 358 361 362 361 364 365 364 363 363 363
311 311 311 311 312 314 316 315 316 317 319 321 323 324 326 329 331 334 337 340 342 345 353 346 346 348 347 348 348 350 351 352 352 353 354 354 354 353 352 351 351 351 351 352 351 350 349 349 350 351 353 354 356 357 358 357 358 359 361 362 362 363 360
311 311 311 311 312 313 314 316 317 317 318 320 320 321 323 325 328 330 332 336 339 341 346 352 348 347 346 346 349 351 353 354 354 354 355 354 355 356 354 353 353 351 351 351 351 352 352 351 350 349 350 351 354 355 355 355 356 352 342 347 360 361 358
312 312 312 312 312 312 313 314 315 316 318 319 320 320 321 323 325 327 330 333 336 339 342 349 354 351 347 347 350 351 353 356 355 355 355 355 356 356 355 354 353 353 353 352 351 351 353 352 350 348 348 348 350 351 351 352 351 340 333 334 339 355 360
311 312 313 313 313 313 313 314 314 314 316 319 320 320 321 322 323 325 327 330 333 336 341 347 351 354 353 351 354 354 355 354 355 355 355 356 355 355 356 355 354 354 354 352 350 353 351 349 349 350 349 348 348 348 349 350 341 332 330 331 331 339 356
309 311 312 313 314 314 314 314 314 315 317 319 319 320 321 322 323 324 326 329 333 336 339 343 349 350 353 358 355 355 355 356 355 355 355 356 356 357 357 356 355 354 352 350 352 351 351 351 349 350 350 349 349 348 348 349 337 329 328 329 329 329 341
308 309 310 312 313 314 315 316 316 317 317 319 320 320 321 322 323 324 326 329 333 335 338 340 344 348 349 352 356 359 359 357 356 355 356 357 357 357 356 355 354 353 352 352 353 353 352 351 351 350 351 350 350 350 349 349 338 327 325 325 325 327 332
307 308 308 310 311 312 314 316 317 318 318 319 319 319 319 320 321 323 326 329 331 333 334 336 340 345 348 350 352 354 355 355 356 356 356 357 357 357 356 355 355 354 353 352 352 352 352 350 350 350 351 350 349 350 349 348 333 325 323 322 322 324 328
308 308 308 309 309 311 313 313 314 316 319 320 318 318 319 319 321 322 325 330 331 332 333 334 338 342 346 348 349 351 353 353 354 355 357 357 357 356 356 356 357 356 356 355 353 354 353 353 352 351 351 350 350 348 348 349 330 324 322 321 321 323 339
309 310 311 310 310 310 312 313 314 316 320 319 319 318 318 320 321 322 324 328 330 332 333 334 335 337 339 342 343 343 344 348 352 354 355 356 356 356 355 356 357 358 358 355 353 352 352 353 352 354 352 352 351 350 349 350 337 322 320 319 320 324 345
310 310 310 311 312 311 312 313 314 316 318 318 319 319 319 319 320 321 323 326 330 331 332 333 333 335 336 337 339 341 342 344 344 347 351 355 354 355 355 356 356 356 357 355 354 352 353 354 354 354 354 353 352 351 350 350 342 322 318 317 318 328 346
308 309 310 310 310 310 311 313 314 315 316 316 317 318 319 319 319 319 321 323 326 328 329 329 328 330 332 334 336 339 342 343 344 345 345 347 351 354 353 355 354 356 357 355 355 354 355 355 354 354 355 354 353 347 349 351 344 323 318 316 316 327 348
307 308 309 310 311 312 313 315 314 313 312 313 315 318 319 319 319 319 319 322 323 325 326 327 328 329 332 335 337 339 341 343 344 345 345 346 348 352 354 355 355 355 356 356 356 355 355 354 355 354 354 355 354 353 352 352 353 349 317 316 314 317 346
308 308 308 309 309 313 312 312 312 312 312 313 315 316 316 318 318 318 320 320 321 322 323 325 328 330 331 333 334 336 338 342 343 344 346 347 348 350 353 355 354 355 356 355 356 356 355 355 355 354 355 355 356 355 355 354 354 352 319 315 313 314 324
307 308 309 310 311 311 311 311 312 312 312 313 313 314 315 317 317 319 319 319 319 321 323 326 328 329 331 332 332 334 337 341 346 348 349 348 350 349 350 355 357 357 356 356 356 356 356 357 356 355 355 356 356 357 356 354 344 356 327 316 312 312 313
306 306 307 308 309 310 310 310 310 310 311 312 312 312 314 315 316 318 319 319 321 322 323 325 327 329 330 331 332 334 336 339 342 346 349 349 348 347 347 351 355 357 360 359 358 357 356 356 357 357 356 357 357 358 359 359 357 334 349 320 312 311 311
307 307 307 308 308 309 310 310 310 311 311 311 313 313 314 315 315 316 318 319 322 323 323 324 326 328 329 330 331 333 335 337 340 342 345 348 349 347 346 348 351 355 357 353 351 351 352 354 357 357 355 355 355 356 358 360 360 342 329 338 313 312 310
305 306 306 307 307 309 310 309 310 310 310 311 313 314 315 315 314 315 317 320 322 322 323 324 325 326 328 329 330 332 334 335 337 339 341 344 348 346 345 346 347 346 350 351 349 349 349 352 355 355 354 354 354 355 357 359 360 362 346 326 322 313 311
306 307 307 307 307 308 309 309 309 309 309 311 312 313 315 315 314 314 316 319 321 322 323 324 325 325 326 328 330 331 332 332 333 335 338 341 349 347 347 347 349 348 350 349 349 350 351 352 353 354 355 355 355 355 357 359 361 361 363 341 331 322 314
305 306 306 306 308 309 308 308 307 308 309 309 312 313 313 315 315 315 317 319 320 321 322 324 324 324 325 327 329 331 331 330 330 332 336 339 341 345 352 352 351 352 349 350 349 351 352 353 353 353 354 353 354 356 358 358 360 361 361 362 357 350 338
305 306 307 308 308 309 308 308 308 308 309 310 311 313 313 313 314 316 317 318 319 320 321 323 324 323 323 324 327 328 328 329 331 333 335 338 340 342 344 352 354 353 352 351 351 351 352 353 353 353 354 354 355 357 357 357 360 360 360 360 360 359 353
305 306 306 306 307 309 307 308 308 309 309 310 311 312 313 314 315 317 320 320 320 321 320 321 323 323 324 324 325 326 328 329 331 333 334 337 340 343 347 347 348 352 354 358 358 356 354 355 354 355 357 358 357 357 356 358 358 360 340 362 339 354 358
305 305 305 306 307 307 307 308 308 309 309 309 311 311 312 313 315 319 320 321 320 320 320 321 321 321 321 323 325 326 327 329 330 332 335 336 337 339 341 338 326 334 345 345 337 330 324 325 349 356 358 358 358 360 357 359 361 340 328 323 321 319 323
304 304 304 305 305 305 306 307 308 309 309 310 312 312 312 314 317 319 319 319 319 319 320 321 321 320 320 321 323 325 327 327 328 330 333 335 336 338 338 341 344 315 312 321 327 323 317 312 312 315 323 345 355 354 334 330 325 324 321 314 314 314 313
304 304 305 305 305 306 306 307 308 308 309 310 311 311 313 314 315 316 317 319 319 319 321 321 320 319 319 320 322 324 326 327 328 330 331 333 336 337 338 339 341 344 324 313 314 315 311 310 311 311 312 312 321 336 353 334 317 313 316 309 309 311 310
Wind_Speed
15 16 17 17 17 18 18 16 16 16 16 16 16 18 17 15 14 13 13 14 16 14 14 14 14 13 14 12 12 11 10 10 9 9 9 8 8 8 8 7 8 6 6 6 6 6 6 6 6 7 7 7 6 6 5 5 5 4 4 4 3 3 3
11 13 14 16 17 19 20 18 16 15 15 15 15 18 17 17 15 14 14 15 16 16 16 15 15 13 14 13 11 11 12 11 10 8 8 7 7 7 8 8 7 6 6 5 5 5 5 6 6 7 7 7 7 6 6 6 6 6 4 5 4 3 3
12 7 13 13 15 15 18 18 17 16 16 16 16 16 17 16 16 16 15 15 16 15 14 15 15 15 14 13 12 13 12 11 11 11 12 11 11 12 9 7 7 7 7 6 5 5 5 6 6 6 7 7 7 7 6 6 6 6 5 5 5 5 4
12 11 9 13 14 14 15 16 17 17 15 17 17 18 18 16 16 15 16 17 18 16 16 15 15 15 13 13 13 12 13 13 12 12 13 12 11 10 8 8 7 7 7 7 6 5 5 6 7 6 7 6 7 7 7 7 6 6 6 6 5 5 5
15 13 11 7 12 11 13 14 14 12 12 14 14 14 16 16 16 15 16 17 18 19 19 18 16 16 13 14 12 12 13 15 13 12 11 10 9 9 9 10 9 9 8 7 6 6 6 6 6 6 6 6 7 6 7 7 7 6 6 6 6 5 5
14 14 12 12 5 12 12 14 15 14 15 15 14 14 14 16 15 17 17 17 16 17 16 16 16 15 15 15 13 12 12 12 12 11 11 10 9 10 11 10 10 10 9 9 7 7 7 7 7 7 7 7 7 7 7 7 7 7 7 6 6 6 6
14 14 14 12 14 10 8 13 13 14 16 15 15 15 13 15 17 17 17 16 17 17 18 17 16 14 13 13 13 13 14 14 13 13 12 12 11 11 10 10 10 9 9 7 8 7 8 8 8 7 7 7 7 8 7 7 7 6 6 6 7 6 6
16 16 16 16 14 13 16 12 6 13 12 11 14 14 15 13 12 13 14 14 14 14 15 17 16 14 13 13 12 15 14 15 13 13 12 13 12 12 11 10 10 9 8 9 9 8 9 9 8 7 8 8 8 7 7 7 7 7 7 7 7 8 6
17 17 17 17 16 15 14 12 14 14 6 9 14 13 15 12 9 9 8 7 7 12 15 15 15 14 13 13 13 15 14 14 13 13 14 14 13 14 13 11 11 9 10 10 9 9 9 9 9 7 7 8 7 7 7 7 8 7 7 7 8 8 8
18 17 18 17 17 16 14 14 15 14 14 14 9 6 14 13 14 14 13 12 11 16 17 15 13 13 13 13 14 14 14 13 13 15 15 15 13 14 14 12 11 10 11 11 9 9 9 9 9 8 8 8 8 8 8 8 8 8 8 9 9 9 9
14 16 17 19 19 17 18 19 17 13 13 13 11 13 5 8 12 13 14 16 18 19 17 16 15 14 14 14 15 15 14 15 14 14 15 15 14 15 14 13 11 10 12 11 11 10 9 9 9 9 9 9 10 9 9 9 9 9 9 9 8 9 9
14 15 15 17 18 19 19 16 14 16 15 13 14 12 11 11 1 11 11 15 17 16 17 17 15 15 13 13 15 14 15 15 14 15 16 15 15 15 14 13 12 11 11 12 12 11 10 10 9 9 11 10 10 10 10 9 9 9 9 10 9 9 9
13 13 14 15 14 13 15 18 18 17 16 14 14 13 12 11 11 11 5 5 12 13 13 13 13 14 14 14 14 13 14 14 15 14 15 14 15 13 13 14 14 13 13 12 13 12 12 11 11 10 11 11 11 11 10 10 10 9 9 10 9 9 9
14 15 15 15 16 18 16 14 16 17 16 17 14 14 12 11 11 10 9 8 8 6 10 9 12 12 13 13 13 13 15 15 14 13 13 13 12 13 13 13 13 13 12 11 13 13 13 13 13 12 11 11 11 11 10 10 10 10 10 10 10 10 10
15 15 15 16 15 14 14 16 15 15 15 14 15 16 14 12 11 10 9 9 8 8 8 8 11 12 13 13 14 14 14 13 12 12 12 12 11 12 13 12 12 12 11 11 11 11 12 13 12 12 12 12 11 11 10 10 10 10 10 10 11 11 11
15 15 15 16 15 15 13 14 13 13 14 14 14 14 14 12 11 11 11 10 9 10 9 10 8 12 14 15 14 13 12 11 11 11 12 12 12 12 12 12 12 11 12 12 12 11 11 11 12 12 13 12 12 12 10 10 9 11 15 13 10 11 11
14 14 14 14 15 15 15 14 14 14 14 14 14 14 11 10 9 9 10 10 10 9 9 8 9 8 13 14 14 12 12 11 11 11 11 12 12 12 12 13 12 11 12 12 12 13 11 12 13 13 13 14 13 14 12 11 11 15 15 16 16 12 11
14 14 14 14 13 14 15 15 15 15 14 14 13 12 11 11 10 9 9 10 10 10 9 8 7 7 6 10 9 9 10 11 12 13 12 12 13 13 13 12 12 11 12 12 13 11 12 13 14 13 14 13 14 15 14 13 15 16 17 18 18 16 12
12 13 13 13 13 14 13 13 14 14 14 12 12 12 12 12 11 10 10 9 9 10 10 9 6 6 7 5 7 10 10 10 12 12 13 12 12 11 10 10 11 12 13 14 14 12 12 13 13 14 14 14 14 15 15 14 16 17 18 18 19 19 16
11 11 11 11 12 13 12 10 11 12 12 12 12 12 11 11 9 10 9 8 8 10 9 9 7 4 5 5 5 3 4 7 10 11 11 10 10 10 11 12 13 14 13 12 12 12 12 14 14 13 12 14 14 13 14 15 14 17 19 19 19 18 16
11 11 11 11 12 13 12 12 11 11 12 11 13 12 12 12 11 10 10 10 9 9 9 8 8 4 3 4 4 4 3 3 4 7 8 9 10 10 12 12 12 13 12 12 12 12 13 14 14 13 13 14 14 13 14 14 17 16 19 19 19 19 15
10 10 11 10 11 11 11 13 13 13 11 11 12 12 12 13 13 12 10 9 9 10 9 8 7 6 6 6 6 6 5 6 6 7 8 9 9 11 12 13 13 13 12 12 12 11 11 12 13 14 14 15 15 15 15 15 17 17 18 20 20 19 11
9 9 9 9 10 10 9 10 11 12 11 11 10 12 12 13 14 14 11 8 7 9 9 9 7 8 8 7 7 6 7 8 7 8 10 10 10 12 13 13 12 12 11 12 13 13 13 13 13 13 14 15 15 16 15 16 16 17 19 20 20 14 10
9 8 9 9 9 9 9 9 10 10 10 11 11 11 11 13 13 13 12 11 9 9 9 9 9 8 9 9 8 8 7 5 5 6 8 10 12 13 13 13 13 13 12 12 13 14 14 13 12 13 13 15 16 16 16 17 16 18 19 20 19 17 12
10 10 9 9 10 11 11 10 10 10 10 11 11 12 12 12 13 13 12 11 11 10 10 9 9 9 9 10 10 9 7 7 6 4 4 6 9 12 13 13 13 13 12 14 14 14 13 13 13 13 13 15 17 16 18 17 17 17 19 20 19 17 11
14 13 12 11 9 9 11 10 10 10 11 11 11 12 12 11 11 12 12 11 10 10 10 11 10 9 8 8 9 9 8 7 6 6 5 5 7 10 12 10 11 13 13 13 13 14 15 14 14 15 14 14 15 15 17 18 17 14 20 20 20 21 14
12 13 14 13 11 11 9 9 9 9 10 9 9 11 12 11 10 10 11 11 10 10 10 11 11 10 8 9 9 8 9 7 7 6 5 6 8 10 11 11 12 13 13 14 13 13 13 15 15 16 16 15 14 15 16 15 17 16 19 20 21 22 19
13 13 13 12 12 10 9 10 10 11 10 9 9 9 10 10 11 11 11 10 10 11 11 11 11 10 10 10 10 9 8 9 8 8 5 6 8 9 11 11 13 12 13 12 12 14 14 14 14 15 16 15 15 15 16 16 18 16 15 20 21 22 25
13 14 15 15 15 13 12 11 11 11 12 10 9 8 8 9 11 11 11 11 11 10 11 11 11 11 10 10 9 9 9 9 10 9 6 6 8 10 10 9 10 12 11 10 11 12 14 14 14 15 15 16 17 16 15 15 13 18 15 18 21 22 23
11 12 14 14 14 14 14 13 13 11 10 11 10 8 8 8 9 10 11 13 11 10 10 10 11 11 11 10 9 10 9 9 10 9 10 9 9 9 9 7 7 7 5 9 10 10 11 12 13 15 15 17 18 17 17 15 14 13 19 16 21 21 24
11 12 13 14 15 15 14 13 15 16 14 9 10 9 8 7 8 10 12 12 11 11 11 10 11 10 10 10 10 10 10 10 9 9 9 11 10 9 7 7 4 4 7 10 9 10 12 12 12 14 14 16 17 18 17 16 15 12 14 20 19 22 23
11 11 12 13 13 14 15 15 15 15 17 14 9 9 8 8 8 10 10 11 11 11 10 10 10 10 11 10 9 10 11 12 12 9 9 11 9 9 8 6 5 7 9 12 13 11 12 12 12 13 14 15 17 18 17 14 13 13 12 12 17 17 22
12 12 12 13 13 13 13 14 15 16 17 18 12 7 8 10 10 10 9 10 10 11 10 10 11 10 10 10 9 9 10 12 11 9 9 10 11 9 8 7 7 8 9 9 12 13 13 13 13 14 15 16 17 17 15 15 13 12 12 12 10 10 11
13 13 13 12 13 13 14 14 15 16 18 18 15 9 9 10 11 11 10 10 10 10 10 10 10 10 10 11 10 9 9 9 14 14 9 9 9 10 9 7 7 8 10 10 11 12 13 13 15 15 17 16 16 15 15 15 12 13 13 13 11 9 9
13 14 15 15 14 14 13 13 14 16 17 18 17 13 10 11 11 11 11 10 9 9 9 10 10 10 11 11 10 10 9 9 10 10 9 9 9 9 9 9 8 8 8 8 8 10 12 14 15 15 16 15 15 15 15 13 13 14 12 11 11 11 10
14 15 16 15 13 15 16 16 15 16 17 16 17 16 13 12 11 10 10 10 10 9 10 10 10 10 10 9 9 10 10 9 9 10 9 10 9 9 10 12 14 12 11 12 12 13 15 13 15 16 15 14 16 16 16 14 12 6 10 14 14 15 16
16 17 17 17 18 17 17 17 17 17 18 17 16 17 16 13 11 11 11 11 11 10 10 10 10 9 8 8 9 10 11 10 10 10 10 10 10 9 10 11 11 14 18 18 16 16 17 18 21 23 22 15 13 13 16 17 14 5 8 12 15 16 16
17 17 18 18 17 17 18 18 18 18 19 17 16 17 17 15 14 13 11 10 10 10 11 11 11 10 9 8 8 10 10 10 11 10 11 10 9 9 9 10 11 13 12 17 18 18 19 21 22 24 22 23 21 16 14 14 13 16 11 13 14 16 17
Wind_Direction
207 202 197 195 194 197 202 203 191 187 188 188 189 191 190 187 186 181 183 183 188 186 183 183 186 187 191 193 195 191 192 190 189 193 195 202 203 203 203 209 209 203 203 200 194 198 200 194 190 189 184 183 189 192 197 200 209 209 204 200 204 208 211
220 208 208 202 197 195 197 197 191 187 189 189 190 188 189 189 184 183 184 184 188 188 182 185 187 189 191 194 193 191 193 195 191 189 193 195 198 205 206 204 206 202 201 209 202 200 195 196 198 197 192 187 191 188 193 200 210 216 212 194 202 200 199
355 282 214 207 206 204 198 194 190 189 187 190 190 188 189 187 182 183 184 185 189 192 187 187 188 190 190 191 191 194 196 196 193 194 198 203 204 209 206 206 206 208 208 205 210 204 200 205 202 204 201 198 198 191 195 200 206 215 217 209 209 207 198
351 343 294 216 205 203 203 200 195 192 190 192 190 190 192 186 182 183 184 186 188 189 189 190 190 192 191 189 193 195 197 199 200 201 205 205 200 199 197 199 202 208 202 207 206 204 203 200 202 205 202 204 199 197 199 204 207 209 215 216 221 216 211
1 1 360 260 211 203 198 202 200 194 191 195 192 192 194 189 189 190 189 192 191 191 192 191 192 193 192 191 194 196 198 199 201 204 205 204 197 193 200 207 202 208 210 200 195 195 198 201 206 203 202 206 205 199 200 201 209 205 213 214 226 220 221
6 8 10 8 273 209 204 204 197 186 181 185 192 196 194 193 194 197 196 192 194 195 195 195 194 190 191 193 195 197 197 199 199 199 202 199 193 201 206 206 204 205 206 202 197 201 197 207 210 205 205 205 208 208 204 203 208 208 210 215 227 231 230
15 16 17 16 20 2 225 204 202 198 189 189 191 191 190 195 197 199 197 196 195 192 193 195 196 194 193 193 197 195 195 197 197 202 203 207 202 204 205 203 205 205 210 193 201 195 200 206 209 207 208 212 209 209 204 202 204 205 208 214 223 229 233
25 23 22 25 25 31 26 9 235 203 182 186 192 185 187 194 197 199 200 200 201 201 199 196 197 196 192 192 195 198 199 202 201 200 202 205 205 207 206 205 203 201 194 202 202 198 205 207 210 211 211 213 211 209 208 203 201 207 209 215 223 229 228
23 27 28 26 28 33 31 31 27 20 16 195 190 186 186 182 167 182 174 170 213 220 208 209 203 197 192 192 194 197 199 200 200 197 200 204 208 211 212 207 206 196 199 209 207 200 208 206 211 208 210 218 215 207 210 205 206 206 208 213 219 227 234
19 22 26 27 30 30 31 36 32 28 26 21 7 212 184 176 186 190 179 176 181 217 216 208 209 204 197 196 200 200 198 200 202 202 202 206 210 213 212 212 206 196 203 207 209 202 202 205 205 204 208 218 220 215 213 209 209 208 208 211 215 222 227
17 20 23 24 27 27 29 30 27 25 26 24 21 22 358 188 178 184 189 183 195 214 214 209 204 204 205 202 204 202 203 205 204 205 206 209 211 213 211 211 207 199 204 207 212 210 200 198 200 202 205 215 218 217 214 214 212 212 215 215 216 219 225
19 21 20 21 22 25 27 24 23 23 22 24 27 25 25 22 234 205 181 184 194 206 204 207 205 209 204 203 204 205 207 207 207 208 208 209 211 212 211 210 209 205 200 205 207 205 206 199 200 203 207 212 215 214 213 212 213 214 217 219 218 218 222
29 21 20 19 17 18 23 23 19 19 17 20 23 24 28 24 22 23 14 229 221 218 210 202 198 199 203 201 204 208 210 209 208 208 210 209 211 212 210 210 210 208 206 203 206 204 207 205 202 203 209 212 213 216 213 210 212 214 215 219 221 220 221
33 31 21 18 19 18 15 12 16 16 13 14 15 18 23 26 22 20 18 10 358 296 221 201 197 194 198 199 202 205 209 213 211 210 211 211 209 209 211 211 211 210 209 203 203 207 209 208 204 204 209 214 215 217 214 210 211 211 214 216 217 218 221
34 32 29 23 18 16 13 13 7 6 8 7 10 13 14 16 15 11 13 16 3 352 332 231 198 200 197 199 202 205 206 207 209 209 207 207 206 207 210 212 211 209 205 202 206 211 213 213 212 209 210 215 215 217 216 217 217 215 212 213 214 218 222
35 32 30 24 17 12 11 12 6 2 0 1 6 6 7 7 6 5 7 4 5 359 346 341 244 200 208 206 205 206 202 197 200 207 206 203 208 209 210 212 210 207 206 209 209 210 210 211 211 213 212 213 214 215 217 218 221 215 209 209 213 214 219
29 28 28 26 17 10 9 9 9 2 358 358 358 359 357 352 349 353 0 0 357 350 347 331 334 254 208 213 212 207 201 195 202 208 207 206 207 208 209 212 212 211 210 209 207 208 203 204 210 215 218 217 215 215 217 220 222 215 207 210 215 219 221
24 22 24 24 19 13 6 6 6 1 356 352 352 353 350 344 342 348 355 352 351 345 336 346 341 342 268 233 217 208 204 203 206 207 211 209 211 211 209 208 208 211 210 213 215 209 210 211 213 214 217 218 218 219 219 222 220 212 208 210 213 216 224
21 19 19 15 16 17 10 2 359 358 353 346 346 345 345 342 338 339 344 344 343 348 350 346 357 344 340 319 243 222 212 209 208 209 212 211 211 211 211 212 214 214 214 215 216 216 213 216 215 214 215 219 219 221 222 226 217 210 210 211 211 212 217
17 15 11 12 11 9 8 1 355 352 349 344 340 341 336 338 335 329 324 333 339 356 346 345 348 337 305 317 330 323 256 229 223 220 217 214 211 209 210 212 216 221 223 221 213 210 212 216 221 221 219 220 223 224 226 228 220 207 210 212 212 211 209
15 8 3 5 2 2 359 354 352 348 346 348 343 339 342 337 341 333 329 337 349 351 345 344 338 354 347 307 299 287 298 297 255 243 234 225 219 216 214 214 218 219 221 223 219 213 211 216 219 221 221 223 225 229 231 232 225 206 207 210 211 210 204
4 359 2 359 356 352 350 351 348 346 346 343 344 342 341 337 334 338 337 334 343 345 347 344 342 0 14 13 5 348 311 273 258 256 253 243 233 227 222 219 216 216 214 220 227 228 227 221 219 220 220 222 226 230 234 237 223 207 206 208 210 205 202
349 350 346 348 350 345 345 343 341 342 339 345 342 344 340 336 334 333 335 341 342 347 350 356 354 357 359 359 3 355 350 336 303 268 255 251 247 241 236 230 225 221 217 221 225 229 228 226 222 222 224 223 222 225 233 238 225 207 207 207 207 196 208
340 341 340 337 339 339 345 344 338 336 339 339 343 344 339 332 332 329 332 341 341 342 345 350 351 348 347 343 346 341 335 324 323 328 304 276 257 250 248 245 242 240 231 226 223 228 231 229 230 227 225 224 223 222 226 235 229 207 208 206 200 194 204
334 335 333 335 333 336 338 339 335 335 335 339 341 342 334 332 330 327 331 337 340 338 337 344 345 344 338 332 332 329 320 315 316 304 299 299 282 267 256 248 246 246 241 239 236 234 233 232 234 232 228 228 227 219 223 235 235 208 205 205 198 195 211
327 328 328 328 329 333 328 325 329 334 340 336 337 331 334 331 326 324 327 328 333 339 336 336 334 330 328 322 322 321 319 311 307 307 310 300 293 279 263 253 251 246 241 242 243 245 244 240 236 234 233 231 229 228 223 232 238 215 200 201 196 195 205
316 319 319 323 328 330 322 328 326 326 329 331 323 327 329 329 322 320 321 323 325 336 334 329 324 327 330 323 321 320 310 297 286 289 298 303 294 290 270 250 239 241 240 240 240 240 241 242 244 244 243 237 235 235 231 230 232 226 195 199 194 196 200
316 314 313 316 319 319 322 320 322 318 317 320 319 319 322 322 320 315 316 316 318 325 326 323 322 321 323 324 322 316 309 303 294 283 258 246 245 250 258 251 242 238 237 238 239 239 240 241 244 247 248 247 241 238 237 231 224 235 198 195 194 195 198
312 315 317 319 319 323 322 317 316 317 316 313 316 314 309 315 313 312 311 309 309 319 321 319 318 319 318 318 314 313 307 302 298 296 272 241 240 250 253 255 254 245 239 234 235 236 235 233 236 241 247 250 250 248 242 238 230 217 219 194 194 193 199
301 304 307 307 308 312 317 313 310 308 309 310 308 304 298 301 306 305 306 303 310 315 316 313 316 314 315 316 312 307 301 296 295 294 293 279 258 246 248 247 262 280 240 237 241 248 246 242 235 239 245 248 247 248 247 242 240 213 210 204 191 196 199
303 302 301 303 306 309 309 306 307 307 304 305 304 302 292 290 297 299 297 302 310 311 311 310 311 313 311 312 310 305 303 302 298 299 298 296 282 267 259 260 248 276 273 253 234 231 242 247 243 240 241 243 244 246 245 243 239 236 205 204 195 197 201
299 298 297 297 298 303 306 306 303 301 301 302 299 297 290 291 293 292 293 298 301 301 302 305 308 308 310 308 305 305 307 306 305 303 300 294 273 256 257 253 221 212 220 244 249 238 233 236 239 242 242 243 243 244 243 237 235 231 225 196 203 201 202
298 294 296 296 296 300 300 304 302 301 301 299 301 295 289 289 290 286 287 288 291 295 298 299 303 302 302 303 305 302 300 302 300 306 303 296 292 277 255 245 241 237 223 209 243 245 240 238 238 240 239 243 245 244 243 239 233 232 231 222 203 200 196
299 299 295 291 292 293 292 291 293 295 299 298 297 296 289 288 287 287 283 280 283 287 289 291 296 297 298 299 296 290 290 293 292 292 286 285 283 283 280 268 258 249 243 230 228 239 243 243 241 239 240 241 242 242 242 239 233 229 227 223 217 203 179
299 297 297 295 293 290 287 288 287 288 290 290 294 295 290 285 284 283 282 279 278 279 281 284 286 291 292 293 293 290 286 279 280 279 282 281 278 274 272 274 271 270 272 253 244 244 248 252 250 246 248 247 249 247 242 233 230 228 220 220 217 210 207
298 297 295 294 291 290 289 286 283 282 283 283 288 292 289 286 282 278 281 284 284 279 276 279 284 287 288 292 291 288 286 281 280 283 281 279 278 284 281 259 245 253 262 270 263 254 254 251 256 258 261 258 252 249 246 236 234 240 195 205 204 207 212
298 300 298 298 295 290 287 287 285 283 280 280 283 285 287 283 279 278 279 281 284 281 275 273 279 280 282 289 290 289 288 286 285 283 283 283 283 284 288 296 279 239 239 247 254 260 264 260 256 258 255 254 265 259 250 259 278 287 200 198 205 212 215
298 295 293 291 287 286 286 284 282 281 279 279 279 281 284 284 281 279 278 275 276 279 273 270 272 275 278 281 284 287 282 278 278 280 283 284 283 282 284 284 285 289 248 229 239 245 242 246 249 252 251 246 243 250 268 262 247 247 224 204 207 212 215